Regional Weather Roundup
Issued by NWS

Home | Current Version | Previous Version | Text Only | Print | Product List | Glossary Off
Versions: 1 2 3 4 5 6 7 8 9 10 11 12 13 14 15 16 17 18 19 20 21 22 23 24 25 26 27 28 29 30 31 32 33 34 35 36 37 38 39 40 41 42 43 44 45 46 47 48 49 50

000
ASUS43 KLMK 281110
RWRKY
KENTUCKY REGIONAL WEATHER ROUNDUP
NATIONAL WEATHER SERVICE LOUISVILLE KY
700 AM EDT THU AUG 28 2014

NOTE "FAIR" INDICATES FEW OR NO CLOUDS BELOW 12,000 FEET
WITH NO SIGNIFICANT WEATHER AND/OR OBSTRUCTIONS TO VISIBILITY.

KYZ001>023-026-027-061>063-070>075-281200-
WESTERN AND SOUTH CENTRAL KENTUCKY

CITY           SKY/WX    TMP DP  RH WIND       PRES   REMARKS
PADUCAH        CLEAR     74  71  91 CALM      30.02S
HENDERSON      PTCLDY    72  68  88 NW3       30.03S
OWENSBORO      PTCLDY    32  32 100 CALM      30.04R
HOPKINSVILLE   PTCLDY    72  72 100 NE1       30.03S
BOWLING GREEN  CLEAR     72  70  93 CALM      30.04S FOG
GLASGOW          N/A     69  69 100 CALM      30.05R FOG
$$

KYZ024-025-028>034-038-045-046-053-281200-
NORTH CENTRAL KENTUCKY

CITY           SKY/WX    TMP DP  RH WIND       PRES   REMARKS
LOUISVILLE/SDF PTCLDY    74  71  91 CALM      30.05S
LOUISVILLE/LOU CLEAR     73  71  93 CALM      30.06R FOG
FORT KNOX      CLEAR     70  70 100 N5        30.05R FOG
$$

KYZ035>037-039>044-047>052-055>060-089>105-281200-
NORTHEAST KENTUCKY

CITY           SKY/WX    TMP DP  RH WIND       PRES   REMARKS
LEXINGTON      CLEAR     71  68  90 NE3       30.07R FOG
COVINGTON      CLOUDY    72  66  83 NE8       30.08R
FRANKFORT      PTCLDY    69  68  96 CALM      30.06R FOG
$$

KYZ054-064>069-076>088-106>120-281200-
SOUTHEAST KENTUCKY

CITY           SKY/WX    TMP DP  RH WIND       PRES   REMARKS
JACKSON        PTCLDY    70  68  93 NW3       30.08R FOG
LONDON         CLEAR     68  65  90 CALM      30.08R FOG
SOMERSET       FOG       68  68 100 CALM      30.08R VSB 1/4
MIDDLESBORO    CLOUDY    64  64 100 CALM      30.09S FOG
MONTICELLO     FOG       69  69 100 CALM      30.08S VSB<1/4
$$




USA.gov is the U.S. government's official web portal to all federal, state and local government web resources and services.